Lapse_Rate
7.2 7.4 7.5 7.3 7.1 6.8 6.4 6.0 5.7 5.0 4.7 4.7 4.4 4.5 4.6 4.6 4.6 4.9 5.1 4.9 5.1 5.3 6.0 5.9 6.1 6.1 6.2 6.2 6.4 6.3 5.9 5.9 5.9 6.0 6.1 5.9 5.6 5.8 5.8 5.8 6.0 6.2 6.3 6.3 6.4 6.5 6.6 7.4 7.4 7.3 7.0 6.8 6.7 6.4
6.9 7.4 7.5 7.4 7.3 7.0 6.8 6.4 6.1 5.7 5.0 4.8 4.7 4.6 4.5 4.4 4.7 5.2 5.6 5.8 5.8 5.9 6.1 6.2 6.2 6.4 6.1 6.0 6.1 6.1 6.0 6.1 6.1 6.3 6.1 5.8 5.6 5.7 5.7 5.9 6.2 6.3 6.5 6.7 6.9 7.3 7.3 7.4 7.4 7.2 7.1 7.0 6.8 6.7
7.1 7.3 7.5 7.6 7.4 7.2 6.9 6.7 6.3 6.2 5.9 5.5 5.4 5.4 5.4 5.4 5.5 5.4 5.7 6.0 5.9 5.9 6.3 6.3 6.3 6.0 6.0 6.1 6.2 6.0 6.0 6.1 6.2 6.2 6.0 5.8 5.6 5.7 5.8 5.9 6.2 6.3 6.6 6.8 6.9 7.3 7.3 7.4 7.2 7.1 7.1 7.2 6.9 6.6
7.2 7.2 7.5 7.5 7.5 7.4 7.2 7.0 6.7 6.3 6.1 5.9 5.7 5.5 5.6 5.8 5.5 5.6 5.7 6.0 6.0 6.3 6.3 6.2 5.9 6.2 6.1 6.0 6.0 6.1 6.2 6.2 6.0 5.9 5.8 5.7 5.7 5.7 5.8 5.9 6.0 6.2 6.5 6.6 6.6 7.0 7.1 7.2 7.2 7.2 7.1 7.2 7.2 6.8
7.3 7.2 7.4 7.4 7.5 7.6 7.5 7.2 6.9 6.7 6.3 6.1 6.1 5.9 5.7 5.5 5.6 5.6 5.6 5.8 5.9 6.2 6.6 6.4 6.2 6.0 5.8 5.9 6.0 6.1 6.3 6.2 6.0 5.9 5.8 5.7 5.6 5.5 5.6 5.6 6.4 6.6 6.5 6.3 6.5 6.7 6.8 7.2 7.6 7.6 7.5 7.3 7.0 7.0
7.3 7.1 7.4 7.5 7.4 7.5 7.5 7.5 7.2 6.9 6.8 6.4 6.3 6.1 6.3 6.3 6.2 6.2 6.4 6.3 6.4 6.5 6.3 5.8 5.8 5.7 5.9 6.0 6.2 6.3 6.3 6.3 6.2 6.1 5.9 5.6 5.5 5.4 5.7 6.4 6.8 6.3 6.4 6.5 6.5 6.7 6.8 7.4 7.8 7.7 7.5 7.1 6.9 6.8
7.2 7.2 7.3 7.3 7.3 7.5 7.5 7.3 7.6 7.2 7.0 6.9 6.7 6.3 6.3 6.5 6.6 6.8 6.7 6.5 6.6 6.5 6.5 6.0 5.6 5.4 5.5 5.9 6.0 6.1 6.2 6.3 6.3 6.1 5.9 5.8 5.6 5.9 6.2 6.5 6.6 6.4 6.5 6.6 6.7 7.1 7.7 8.1 7.9 7.6 7.3 7.0 6.9 6.7
6.8 7.1 7.2 7.2 7.3 7.4 7.5 7.5 7.6 7.6 7.4 6.9 6.9 6.8 6.8 6.8 6.7 6.6 6.6 6.5 6.5 6.5 6.6 6.4 5.9 5.6 5.5 5.7 5.8 5.8 5.9 6.0 6.0 6.1 6.0 6.2 6.4 6.4 6.6 6.9 6.7 6.9 6.9 7.0 7.3 7.9 8.2 8.0 7.8 7.6 7.4 7.1 7.0 6.9
6.6 6.9 7.0 6.9 7.0 7.2 7.3 7.7 7.6 7.6 7.4 7.2 6.8 6.9 6.9 6.9 6.8 6.7 6.6 6.5 6.5 6.6 6.7 6.5 6.4 5.9 5.8 5.8 5.7 5.6 5.6 5.8 5.9 6.3 6.6 6.5 6.5 6.9 7.2 7.1 7.0 7.1 7.2 7.3 7.5 7.8 7.8 7.7 7.6 7.4 7.4 7.3 7.1 7.1
6.8 6.7 6.7 6.6 6.6 6.8 7.0 7.4 7.6 7.4 7.4 7.4 7.0 6.8 6.7 6.7 6.7 6.6 6.6 6.6 6.6 6.7 6.6 6.4 6.4 6.2 6.2 6.1 5.9 6.0 6.0 6.3 6.5 6.6 6.6 6.8 7.5 7.7 7.5 7.4 7.3 7.3 7.3 7.3 7.4 7.5 7.6 7.5 7.5 7.4 7.3 7.1 7.2 7.1
7.0 6.9 6.6 6.4 6.5 6.6 6.9 7.0 7.2 7.3 7.4 7.4 7.2 7.1 6.9 6.6 6.6 6.8 6.8 6.8 6.8 6.7 6.6 6.4 6.4 6.5 6.2 6.2 6.2 6.2 6.3 6.5 6.7 6.7 6.7 7.0 8.1 8.0 7.8 7.7 7.7 7.5 7.4 7.4 7.3 7.3 7.3 7.3 7.2 7.1 7.1 7.2 7.0 6.8
6.9 6.9 6.8 6.5 6.5 6.7 6.8 7.0 7.3 7.4 7.7 7.5 7.6 7.7 7.4 7.1 7.1 7.2 7.2 7.3 7.2 7.0 7.0 6.8 6.6 6.6 6.5 6.4 6.4 6.5 6.8 6.9 6.9 6.9 6.8 7.4 8.3 7.9 7.8 7.7 7.8 7.7 7.5 7.4 7.2 7.3 7.2 7.1 7.0 7.0 7.1 7.0 6.9 6.9
7.4 7.0 6.7 6.6 6.8 6.9 6.9 7.1 7.5 7.7 7.6 7.6 7.5 7.4 7.5 7.4 7.4 7.5 7.7 7.8 7.7 7.6 7.6 7.4 7.1 6.9 6.7 6.7 6.8 7.1 7.1 7.2 7.2 7.0 7.3 8.0 7.6 7.5 7.5 7.5 7.6 7.5 7.4 7.3 7.3 7.2 7.3 7.3 7.1 7.1 7.0 6.9 6.8 6.6
7.8 7.3 7.0 6.7 6.9 7.5 7.5 7.7 7.5 7.6 7.7 7.7 7.6 7.4 7.8 7.9 8.0 8.2 8.3 8.1 7.9 7.7 7.6 7.4 7.3 7.1 7.0 7.0 7.3 7.4 7.4 7.3 7.3 7.3 8.0 7.9 7.8 7.5 7.5 7.5 7.4 7.3 7.2 7.2 7.2 7.2 7.2 7.1 7.1 7.1 7.1 7.0 7.0 6.8
8.0 7.5 7.1 7.0 7.4 7.7 7.9 7.9 8.0 8.1 8.0 7.7 7.9 7.8 8.1 8.2 8.5 8.5 8.2 8.0 7.9 7.8 7.7 7.5 7.3 7.3 7.2 7.2 7.6 7.4 7.3 7.0 7.6 8.0 8.1 7.9 7.8 7.7 7.6 7.6 7.5 7.4 7.3 7.3 7.2 7.1 7.1 7.0 6.9 6.8 6.9 6.9 6.8 6.6
8.0 7.5 7.4 7.5 7.6 7.7 7.9 8.0 7.9 7.9 7.9 7.9 8.1 8.2 8.4 8.7 8.8 8.6 8.4 8.3 8.2 7.9 7.6 7.3 7.2 7.1 7.3 7.3 7.5 7.8 7.4 7.9 8.3 8.3 8.1 7.9 7.8 7.8 7.7 7.6 7.4 7.3 7.2 7.2 7.1 7.0 7.0 6.8 6.7 6.6 6.5 6.4 6.3 6.2
8.1 7.8 7.5 7.3 7.8 7.8 7.9 7.8 7.9 7.6 7.5 7.9 8.0 8.3 8.6 8.7 8.7 8.7 8.4 8.2 8.0 7.8 7.9 7.6 7.6 7.8 7.5 7.5 7.6 7.7 8.2 8.4 8.2 8.2 8.1 8.0 7.9 7.8 7.6 7.5 7.3 7.3 7.3 7.2 7.1 7.0 6.8 6.7 6.7 6.6 6.5 6.5 6.4 6.3
8.0 7.7 7.6 7.7 7.6 7.9 8.0 7.9 7.9 8.1 8.0 8.2 8.4 8.5 8.6 8.5 8.5 8.4 8.3 8.1 8.0 7.8 7.8 7.6 7.8 7.6 7.7 7.8 8.0 8.2 8.3 8.2 8.1 8.2 8.1 7.9 7.7 7.6 7.5 7.4 7.3 7.2 7.0 7.0 6.9 6.8 6.8 6.8 6.8 6.7 6.6 6.5 6.3 6.2
7.9 7.6 7.6 7.7 8.0 7.9 7.7 7.7 7.8 7.9 8.0 8.1 8.3 8.5 8.4 8.4 8.3 8.2 8.2 8.1 8.0 7.7 7.6 7.5 7.4 7.6 7.9 8.2 8.2 8.3 8.3 8.0 8.0 7.8 7.7 7.7 7.6 7.4 7.3 7.3 7.1 7.2 7.2 7.2 7.1 6.9 6.7 6.6 6.5 6.4 6.3 6.3 6.2 6.2
7.5 7.7 8.0 7.9 8.0 7.8 7.8 7.6 7.8 8.0 7.9 8.1 8.2 8.2 8.2 8.1 8.1 8.1 8.0 7.8 7.6 7.5 7.4 7.3 7.5 8.0 8.1 8.1 8.2 8.2 8.1 7.9 7.7 7.7 7.5 7.4 7.3 7.3 7.2 7.2 7.4 7.3 7.1 7.0 6.8 6.7 6.5 6.4 6.2 6.2 6.0 5.9 5.8 5.8
7.5 7.7 8.0 8.0 8.1 8.1 7.9 7.9 8.1 8.3 8.3 8.1 8.1 8.2 8.3 8.3 8.2 8.0 7.8 7.7 7.8 7.8 7.9 8.0 7.9 7.9 8.0 7.9 7.9 7.9 7.8 7.7 7.6 7.5 7.3 7.2 7.1 7.0 7.2 7.3 7.1 7.1 7.1 6.8 6.6 6.5 6.4 6.3 6.1 6.0 5.8 5.7 5.5 5.5
7.9 8.0 8.0 8.2 8.2 8.2 8.2 8.2 8.1 8.1 8.1 8.2 8.2 8.1 8.1 8.1 7.9 7.9 7.8 7.8 7.8 7.9 7.8 7.8 7.6 7.5 7.6 7.7 7.7 7.6 7.5 7.4 7.3 7.2 7.1 7.1 7.2 7.3 7.2 7.1 7.1 6.9 6.6 6.5 6.4 6.2 6.1 6.0 5.9 5.8 5.6 5.5 5.3 5.2
8.0 8.1 8.3 8.3 8.3 8.2 8.2 8.1 8.0 8.2 8.2 8.2 8.2 8.1 7.9 7.8 7.9 7.8 7.6 7.7 7.8 7.6 7.5 7.4 7.3 7.3 7.3 7.3 7.2 7.2 7.2 7.1 7.0 7.0 7.1 7.2 7.2 7.1 7.0 7.0 6.8 6.6 6.4 6.3 6.2 6.1 6.0 5.8 5.7 5.5 5.4 5.3 5.2 5.1
8.2 8.2 8.2 8.1 8.1 8.1 8.0 7.9 7.9 7.8 7.8 7.8 7.7 7.7 7.7 7.7 7.7 7.6 7.6 7.8 7.6 7.4 7.4 7.3 7.2 7.1 7.1 7.1 7.0 6.9 6.9 6.9 6.9 7.1 7.2 7.2 7.1 7.0 6.9 6.7 6.5 6.4 6.2 6.1 6.0 5.8 5.7 5.6 5.5 5.4 5.4 5.3 5.2 5.1
7.8 7.9 7.8 7.7 7.7 7.8 7.7 7.6 7.6 7.6 7.7 7.7 7.6 7.7 7.9 7.7 7.6 7.6 7.7 7.8 7.6 7.5 7.5 7.4 7.3 7.1 6.9 6.9 6.8 6.9 6.9 6.9 7.1 7.2 7.2 7.1 7.0 6.9 6.7 6.5 6.4 6.4 6.3 6.1 5.9 5.7 5.6 5.5 5.4 5.3 5.3 5.2 5.2 5.2
7.6 7.6 7.6 7.7 7.8 7.9 7.7 7.6 7.6 7.5 7.5 7.6 7.7 7.7 7.8 7.6 7.5 7.4 7.3 7.3 7.4 7.3 7.2 7.1 7.0 6.9 6.9 6.8 6.8 6.8 6.8 7.1 7.2 7.1 7.0 7.0 6.9 6.8 6.7 6.6 6.5 6.4 6.2 6.0 5.9 5.7 5.5 5.5 5.4 5.4 5.3 5.3 5.2 5.1
7.5 7.5 7.6 7.7 7.7 7.7 7.6 7.6 7.5 7.6 7.6 7.6 7.6 7.6 7.4 7.2 7.0 6.9 6.8 6.8 6.8 6.9 7.0 6.9 6.8 6.7 6.7 6.7 6.7 7.0 7.2 7.3 7.2 7.1 6.9 6.8 6.7 6.7 6.6 6.5 6.4 6.3 6.2 6.0 5.9 5.8 5.7 5.6 5.5 5.4 5.3 5.2 5.2 5.2
7.5 7.5 7.6 7.6 7.6 7.6 7.5 7.6 7.5 7.5 7.3 7.3 7.2 7.1 7.0 6.8 6.7 6.6 6.5 6.5 6.6 6.5 6.6 6.6 6.6 6.6 6.7 6.8 6.9 7.1 7.1 7.0 6.9 6.8 6.7 6.6 6.6 6.5 6.4 6.3 6.2 6.1 6.0 5.9 5.9 5.8 5.8 5.7 5.6 5.4 5.3 5.3 5.3 5.2
7.4 7.5 7.6 7.6 7.6 7.5 7.5 7.5 7.4 7.3 7.0 7.0 6.9 6.8 6.6 6.3 6.3 6.2 6.1 6.1 6.1 6.2 6.4 6.6 6.6 6.6 6.6 6.8 7.0 7.1 7.0 6.9 6.8 6.7 6.6 6.6 6.5 6.4 6.3 6.3 6.2 6.1 5.9 5.9 5.9 5.9 5.8 5.8 5.7 5.5 5.5 5.4 5.3 5.2
7.5 7.4 7.4 7.4 7.3 7.3 7.3 7.1 7.0 6.9 6.8 6.7 6.7 6.7 6.5 6.3 6.1 6.0 5.9 5.9 6.0 6.1 6.2 6.5 6.6 6.7 6.6 6.6 6.6 6.7 6.6 6.6 6.6 6.6 6.6 6.5 6.4 6.2 6.2 6.2 6.1 6.0 5.9 5.9 5.9 5.9 5.8 5.8 5.8 5.6 5.5 5.4 5.3 5.2
7.4 7.3 7.2 7.1 7.0 7.0 6.8 6.7 6.6 6.6 6.6 6.5 6.4 6.4 6.4 6.4 6.3 6.1 6.0 6.0 6.0 6.0 6.0 6.2 6.4 6.3 6.4 6.4 6.2 6.1 6.1 6.2 6.4 6.4 6.3 6.2 6.2 6.1 6.0 6.0 5.9 5.9 5.9 5.9 5.9 5.8 5.8 5.8 5.8 5.7 5.6 5.5 5.5 5.4
7.1 7.2 7.0 6.9 6.9 6.8 6.7 6.5 6.5 6.5 6.6 6.5 6.4 6.3 6.3 6.3 6.2 6.4 6.3 6.2 6.1 6.0 5.8 5.8 5.7 5.8 5.6 5.6 5.8 6.0 6.0 6.2 6.1 6.1 6.2 6.1 6.0 5.9 5.8 5.8 5.9 5.8 5.8 5.9 5.9 5.8 5.8 5.8 5.8 5.8 5.7 5.5 5.5 5.5
6.6 6.6 6.6 6.5 6.5 6.5 6.3 6.1 6.1 6.1 6.3 6.3 6.3 6.3 6.3 6.3 6.3 6.5 6.4 6.1 5.8 5.7 5.6 5.6 5.5 5.6 5.6 5.5 5.5 5.7 5.8 5.8 5.9 5.9 5.8 5.7 5.7 5.7 5.6 5.7 5.9 5.7 5.7 5.8 5.9 5.9 5.9 5.8 5.8 5.7 5.7 5.6 5.5 5.5
Wind_Speed
12 9 5 14 19 18 15 17 17 19 20 19 17 15 12 12 15 5 1 4 3 3 2 4 2 4 4 3 4 5 4 2 2 3 2 2 2 1 2 1 3 4 4 3 2 1 5 1 2 2 1 4 5 7
5 6 9 8 16 20 21 20 15 16 18 18 17 15 14 13 13 7 4 4 4 5 3 2 4 4 4 4 6 3 2 2 3 3 1 3 2 2 3 2 3 1 5 4 5 4 2 2 4 4 1 4 2 6
6 8 7 9 15 20 20 21 19 20 19 18 17 16 15 14 15 8 3 3 4 4 3 4 4 6 4 4 1 4 0 4 3 2 3 2 3 2 3 3 1 2 2 1 1 1 3 5 4 3 1 2 2 3
4 5 7 10 10 19 17 22 21 21 19 18 18 17 15 16 15 10 4 3 4 3 4 2 2 4 2 6 7 5 6 5 5 3 3 2 2 2 2 2 3 4 2 3 4 4 1 4 3 3 2 4 2 3
3 6 4 12 12 5 19 21 22 21 22 21 20 19 19 20 20 15 4 4 3 4 3 3 1 6 4 7 10 9 7 5 3 3 3 1 2 2 1 2 2 4 6 4 5 3 3 1 5 4 5 6 6 4
5 5 5 6 13 11 17 19 21 21 22 22 21 21 18 13 10 4 4 3 6 3 4 3 2 4 5 7 9 7 4 4 3 3 2 0 1 2 2 2 4 4 4 5 3 4 3 3 5 2 3 4 7 5
8 6 4 7 10 9 12 23 22 20 23 23 22 20 16 14 5 4 2 2 2 3 3 3 2 3 4 4 3 3 3 2 3 2 2 2 1 3 2 3 3 5 4 3 2 3 3 2 2 3 5 5 6 5
10 8 6 8 12 10 10 17 24 23 23 25 26 21 18 17 8 4 5 6 6 4 3 3 2 2 3 2 2 2 2 2 3 2 1 2 1 1 3 5 2 4 6 5 5 5 3 5 5 6 5 4 4 5
12 11 9 8 13 12 10 16 27 23 27 30 26 16 6 5 3 1 8 12 9 4 3 2 4 3 1 2 2 2 1 2 1 1 1 3 2 4 1 2 5 5 3 9 8 8 6 6 4 5 5 6 5 6
15 13 12 11 13 13 12 13 22 33 37 31 6 4 3 1 7 2 6 4 4 3 3 2 1 3 3 1 1 2 2 1 1 3 2 2 3 4 4 5 5 8 7 5 7 3 2 1 1 3 5 4 5 5
17 16 15 14 13 14 14 14 26 41 28 2 2 2 1 4 3 3 3 3 2 3 1 1 2 4 1 3 2 1 2 1 1 3 3 2 3 3 6 7 6 8 9 9 8 7 5 5 3 3 4 6 6 6
20 19 17 15 14 13 14 15 35 5 3 6 8 5 2 3 3 5 1 1 1 2 1 3 3 3 2 1 3 1 3 1 3 3 2 3 2 5 7 7 6 6 8 8 7 7 6 7 6 6 5 6 5 5
21 20 19 16 15 13 10 25 13 18 27 4 5 3 3 2 5 4 5 0 1 3 3 2 1 3 2 2 3 2 4 4 1 1 3 3 4 6 7 7 7 6 7 8 8 8 8 7 7 6 4 4 4 4
21 19 19 17 17 18 20 26 28 10 4 3 4 4 3 4 4 4 4 4 3 3 5 3 2 3 2 2 2 3 3 2 1 0 5 3 7 8 6 6 6 5 6 6 6 7 6 5 5 5 4 3 3 5
21 19 18 16 17 19 18 21 13 3 3 2 3 3 4 2 1 3 2 3 2 2 4 3 3 2 1 3 2 3 3 3 5 4 3 2 8 9 7 6 7 6 5 5 3 4 4 4 4 2 3 3 4 3
23 16 5 19 20 21 14 5 2 2 2 3 3 3 2 4 3 2 2 3 3 3 2 3 2 2 1 4 3 5 6 5 4 3 2 7 7 6 7 6 6 6 6 5 3 3 3 3 3 2 1 2 2 3
11 2 19 25 25 15 4 0 1 3 3 3 2 1 2 3 3 3 3 4 1 2 3 3 4 6 1 2 3 4 5 3 2 3 4 4 7 7 6 7 6 6 6 5 3 2 2 1 2 2 2 2 1 0
4 13 24 28 16 4 1 2 3 4 4 2 3 2 2 2 3 2 1 1 2 2 2 3 3 2 4 5 3 3 2 2 3 3 2 4 6 6 7 7 6 6 5 4 4 2 3 3 3 1 1 1 2 2
10 15 23 15 8 3 2 3 3 4 2 2 2 2 2 2 2 1 1 1 1 1 3 2 2 3 3 3 3 3 5 4 4 2 2 2 5 6 6 6 6 5 5 5 3 3 2 2 2 2 1 1 2 1
24 25 18 18 2 2 3 2 2 4 2 2 2 2 2 2 1 1 1 1 1 2 2 2 4 3 3 2 3 3 4 6 7 5 2 1 1 5 5 5 3 4 4 4 3 4 2 2 1 2 2 2 2 0
8 5 16 6 3 3 3 2 4 2 2 2 1 2 0 2 2 1 0 0 2 2 3 3 3 2 2 1 2 4 7 8 6 4 5 4 2 4 4 2 4 3 2 2 3 1 2 2 2 1 2 1 2 2
3 8 2 2 1 2 3 2 4 3 3 2 1 2 2 1 1 1 1 1 2 3 3 3 2 2 3 3 2 2 5 6 5 6 8 9 4 3 2 3 4 2 2 3 3 3 2 1 1 2 2 1 1 1
8 3 1 2 4 4 1 1 3 1 3 1 1 2 1 1 1 1 0 2 3 2 2 2 2 2 3 3 5 5 4 8 5 5 5 4 3 3 4 3 3 4 3 2 2 3 2 1 2 2 1 2 1 1
3 2 3 2 3 1 1 2 2 2 2 2 2 2 2 2 0 2 3 3 2 1 2 3 4 5 4 4 2 2 2 4 5 4 4 7 5 1 2 3 2 2 2 3 3 3 2 1 1 2 2 2 2 1
5 5 4 3 3 3 3 2 2 2 2 3 2 0 2 1 1 1 3 3 2 2 2 3 2 2 3 2 2 1 1 5 7 7 1 3 5 4 4 3 2 1 1 4 2 2 1 1 1 2 2 2 1 2
4 3 2 1 0 2 3 3 3 4 3 2 1 1 2 2 1 5 3 3 3 4 4 7 5 3 1 1 4 2 3 2 6 5 1 4 6 7 5 4 2 2 1 3 4 3 2 1 2 3 2 3 3 2
2 2 1 1 0 2 3 2 2 3 2 3 3 2 2 1 4 3 2 2 2 3 4 4 5 5 5 3 3 3 3 3 3 4 4 3 3 3 5 6 4 3 4 4 4 4 4 4 2 2 2 0 2 3
2 1 2 2 2 2 3 2 3 3 3 1 3 3 5 6 4 2 3 2 1 1 3 3 2 4 5 5 6 6 6 6 8 8 7 6 4 3 2 2 3 8 3 3 4 4 3 4 4 4 3 3 1 1
2 2 2 3 2 2 1 2 3 1 0 2 3 3 3 2 2 1 1 1 1 4 5 5 2 4 6 5 4 3 8 8 7 6 5 2 0 2 1 2 4 3 2 4 4 5 6 4 4 4 4 4 3 2
2 1 3 2 2 2 2 1 1 2 1 1 1 1 2 2 2 1 1 2 3 4 4 5 6 5 6 7 5 2 2 1 2 5 6 5 6 4 4 4 4 3 2 4 4 3 6 4 4 3 3 3 3 3
1 2 3 2 2 2 3 2 2 0 3 2 2 2 2 3 3 2 0 1 2 3 5 4 2 3 7 6 7 7 5 3 3 4 3 4 6 8 6 5 4 5 4 4 4 3 3 2 2 3 4 3 2 2
2 2 2 0 2 2 3 2 1 1 3 3 2 2 4 3 2 3 3 2 2 3 1 4 6 5 4 3 3 3 4 6 6 5 7 5 5 6 7 8 9 7 5 5 4 3 3 5 4 4 4 4 2 1
2 2 3 2 4 4 3 3 4 4 3 2 2 2 2 3 1 2 3 1 2 2 4 3 1 3 5 4 6 4 4 4 8 10 10 11 13 12 10 9 8 5 6 5 4 4 5 5 3 4 4 3 2 1
Wind_Direction
360 18 90 150 151 153 140 129 131 132 132 129 125 118 98 64 49 55 154 18 124 86 28 20 78 114 87 100 130 164 92 357 52 81 127 171 132 164 96 113 171 166 155 195 138 209 275 307 350 151 192 312 338 329
19 40 35 159 151 161 147 147 150 137 131 127 120 112 97 70 56 59 52 347 29 85 121 350 58 40 55 129 123 46 131 113 151 98 129 114 128 61 138 213 338 255 178 180 174 219 178 138 146 121 87 294 324 318
70 17 108 50 174 153 155 154 160 143 139 132 123 116 96 72 69 78 94 339 57 78 40 46 20 11 45 49 118 115 19 141 76 137 146 118 108 128 145 246 78 295 171 145 4 276 212 171 176 124 149 297 295 317
76 73 71 109 71 166 151 151 145 140 135 133 127 117 98 84 76 74 65 340 70 112 99 39 357 40 23 53 56 72 117 72 100 74 85 112 115 147 197 201 153 201 75 176 265 278 139 204 178 142 70 6 359 58
113 89 63 130 132 125 151 145 139 142 137 134 131 118 99 96 97 82 71 27 59 108 133 120 87 8 60 78 71 69 82 88 74 67 74 126 108 113 83 49 263 183 197 160 231 240 154 199 148 129 78 64 74 54
143 109 102 112 130 129 155 151 153 143 139 138 131 121 117 97 65 59 52 356 13 66 94 86 314 26 57 71 74 71 67 68 74 112 137 72 262 120 132 215 249 208 186 179 222 180 136 128 115 96 98 87 90 71
155 142 137 147 121 123 130 153 154 149 139 136 132 123 106 73 61 70 125 196 51 68 81 82 75 21 86 91 51 54 40 78 95 99 92 144 263 137 140 223 241 204 198 178 192 101 52 21 189 73 94 84 81 79
163 153 138 147 137 127 126 146 162 161 134 135 125 110 97 92 98 38 11 63 57 87 64 99 89 73 352 67 75 12 74 45 18 105 77 165 68 84 249 250 271 131 111 92 87 65 101 113 86 62 58 43 62 52
166 158 145 137 149 132 128 144 158 148 135 121 118 106 59 38 52 69 111 72 56 99 107 86 127 150 65 76 90 49 58 64 305 138 221 121 180 223 233 336 98 163 154 134 103 92 92 88 83 57 44 31 34 24
164 160 155 149 143 138 136 141 136 138 124 131 72 59 41 351 123 33 15 26 16 349 37 92 88 98 94 58 69 94 33 124 110 238 125 199 245 88 72 56 76 81 84 113 119 119 111 79 22 41 40 25 39 14
164 159 153 144 141 147 147 139 146 127 125 47 78 78 227 141 51 37 52 73 331 32 48 73 105 119 39 109 156 172 160 105 206 231 160 228 258 119 126 95 74 76 83 78 87 86 57 55 49 24 28 35 26 19
163 159 154 147 141 143 143 151 139 106 130 149 109 93 89 48 46 77 23 10 100 162 162 133 187 116 131 125 93 159 142 145 239 153 203 260 219 146 131 116 99 89 90 88 87 90 78 66 54 52 38 32 29 17
161 160 154 147 145 143 155 153 116 132 129 72 57 81 84 0 57 134 177 206 222 174 178 157 97 130 100 93 94 125 170 211 49 151 231 227 154 151 138 129 106 96 98 101 98 91 84 71 52 51 49 23 20 29
156 156 155 149 147 135 133 149 145 139 69 93 136 132 151 174 222 186 171 168 218 132 142 132 96 128 141 125 159 136 219 159 51 305 239 201 168 149 134 131 121 104 93 92 85 94 90 90 73 52 33 13 33 26
147 148 149 148 154 155 169 162 139 24 77 106 99 133 196 224 165 164 135 93 100 144 132 85 67 99 116 101 192 102 176 214 195 231 229 187 146 141 138 133 130 124 114 102 98 103 101 93 96 68 12 14 56 39
135 124 116 143 122 126 119 154 19 115 75 91 81 104 165 115 93 45 95 115 138 138 95 65 113 87 207 158 146 205 145 217 247 214 187 130 132 129 129 127 128 129 121 120 118 134 136 125 130 155 7 51 42 66
92 39 143 135 128 119 83 162 218 64 73 71 81 30 110 90 134 136 144 157 80 88 156 122 135 198 132 119 196 175 200 215 167 134 138 118 139 138 126 121 120 124 126 131 124 129 149 153 130 104 92 290 329 39
77 126 126 110 98 83 337 21 71 66 75 67 109 128 91 75 94 95 95 121 173 167 120 170 121 190 183 174 239 215 147 113 102 121 138 115 116 118 129 133 134 131 133 127 116 94 90 106 96 30 32 153 115 124
123 126 133 126 107 113 88 37 54 96 87 91 71 55 85 79 71 81 103 112 206 232 109 66 110 199 224 212 177 184 156 154 149 144 111 80 125 130 126 118 126 123 136 142 141 134 130 124 136 138 110 75 104 43
129 138 134 115 91 74 85 50 66 89 108 188 83 72 119 139 189 62 18 41 110 78 63 188 215 217 184 236 196 160 146 139 131 111 97 46 97 121 135 140 143 136 118 110 102 114 110 68 40 106 112 118 108 168
93 151 137 134 17 57 79 81 52 91 116 85 145 69 37 23 49 68 73 1 76 207 230 216 216 231 179 208 128 120 137 147 156 151 159 156 214 130 125 109 130 115 119 132 143 128 114 172 215 134 122 140 180 195
109 127 88 68 67 67 73 9 115 121 77 150 103 115 105 124 174 233 116 88 225 230 192 173 203 145 147 149 168 124 128 107 97 99 88 118 130 130 143 159 133 152 153 170 157 168 203 220 177 130 117 224 195 166
120 100 85 106 71 55 252 147 101 98 105 220 108 71 24 63 232 122 261 228 251 229 176 175 134 90 115 101 102 79 94 128 122 125 125 121 112 113 121 140 136 138 147 235 171 149 164 175 114 106 52 58 57 10
123 86 75 70 73 119 4 47 82 91 71 115 115 108 161 189 77 60 244 251 252 181 167 171 138 118 101 94 100 138 122 112 110 83 117 129 125 74 126 142 135 117 133 138 131 128 124 129 109 112 78 98 59 63
76 348 74 32 6 82 83 81 75 79 135 187 102 116 200 88 88 267 239 266 195 172 167 149 120 112 132 113 110 98 290 147 144 145 315 115 113 102 82 70 70 91 135 113 130 146 178 121 115 134 137 132 173 297
62 322 72 160 28 122 158 124 162 163 129 115 131 67 53 88 83 249 239 212 213 183 180 176 154 125 71 123 145 149 182 131 127 126 200 158 151 148 153 150 144 280 186 142 132 144 164 172 184 178 193 214 194 154
74 301 325 3 14 107 79 44 82 106 134 161 177 108 88 173 245 251 279 217 194 211 173 159 158 153 156 136 90 76 89 82 109 132 124 115 93 124 153 164 185 214 151 141 139 147 161 176 186 188 187 300 214 187
175 88 127 285 58 11 130 93 134 171 197 161 106 169 182 199 237 238 219 278 213 132 123 116 105 133 136 134 130 118 89 97 92 94 91 67 47 40 89 100 101 125 108 117 135 127 131 156 165 167 156 148 143 40
38 332 87 28 8 32 87 158 205 251 192 129 155 214 234 236 229 225 279 253 139 127 130 120 43 88 83 74 65 103 138 142 124 121 130 167 5 296 33 95 113 111 119 113 118 132 137 133 152 149 145 131 137 97
308 42 89 52 103 252 257 150 229 268 295 187 167 344 326 298 256 236 137 133 157 173 167 149 145 136 148 146 139 78 356 99 151 146 168 191 202 161 155 148 143 146 125 120 115 77 77 65 66 51 55 48 38 49
3 81 77 88 221 253 241 286 305 118 30 24 355 156 242 299 308 325 312 124 115 110 122 128 98 141 148 149 163 163 200 221 184 152 136 126 138 153 158 158 144 141 138 132 134 118 109 82 97 109 106 112 80 94
23 84 135 159 282 302 18 52 9 36 340 17 307 352 351 24 320 322 340 12 118 132 215 157 162 196 194 155 139 142 165 151 167 168 148 140 141 144 142 139 144 137 130 129 121 123 121 138 135 141 148 162 165 166
47 43 49 55 12 2 330 53 21 340 1 344 291 216 220 166 199 284 317 331 243 202 193 190 118 97 136 138 143 127 106 115 133 145 144 139 139 140 137 139 142 130 131 130 129 123 133 124 127 146 150 154 173 205